Showing default

SKYNET 4B, 19687

Orbit data source: Space-Track

SKYNET 4B, 19687 is a payload satellite owned by UK MoD (UK) in GEO that was launched on Sun, 11 Dec 1988 UTC via an ARIANE 44LP launch vehicle from the French Guiana (FRGUI). Payload-class satellites include a variety of spacecraft equipped with specific instruments for various scientific and technological missions. These include communications satellites like Starlink; space stations such as the ISS; scientific satellites like the Hubble; Earth observation satellites from companies like Planet Labs, Umbra, and HawkEye 360; GPS; miniature CubeSats for education and research; and military/defense satellites.

Loading next visibility...
Identifier
19687, 1988-109A
Orbit
GEO
Country
Flag of UKUK
Related business
Manufacturer
BAe
Mission
Non-operational Defense Communications
Bus & Motor
ECS, TE-M-700-19
Mass
1,433 kg wet, 655 kg dry
Launch date (UTC)
1988-12-11 (37 years ago)
Launch vehicle
ARIANE 44LP
Launch site
French Guiana (FRGUI)
Object type
Payload
Rocket body
Debris
Shape & HBR
Hex Poly + 2 Pan, 8.0 m
Radar Cross Section
11.617 m², Large (>1 m²)

Expand to show TLE details & history
Last TLE update: 11 hours ago

TLE from 11 hours ago
0 SKYNET 4B
1 19687U 88109A   26125.60306756 -.00000124  00000-0  00000+0 0  9993
2 19687  13.1417 337.2125 0005295 323.6913  51.6015  0.99666799117740
Epoch: 2026-05-05T14:28Z
TLE epoch observation values (Epoch: 2026-05-05T14:28:25.037Z)
Latitude
3.46408°
Longitude
-88.41007°
Altitude
35,942.418 km
Speed
3.07 km/s
True Right ascension
23h 28m 40s
True Declination
3° 27' 38"
Sunlit
Object was in daylight at epoch
Visualization orbit readout
Latitude
Unknown
Longitude
Unknown
Altitude
Unknown
Speed
Unknown
Apparent Right ascension
Unknown
Apparent Declination
Unknown
Sunlit
N/A
Visualization observer readout
Local Sidereal Time
09:49:29
Azimuth
Unknown
Elevation
Unknown
Doppler factor
Unknown
Orbital elements
Apogee altitude
35,980.454 km
Perigee altitude
35,935.62 km
Semi-major axis
42,336.174 km
Eccentricity
0.00053
Inclination
13.1417°
RAAN
337.2125°
Arg. of periapsis
323.6913°
True anomaly
51.64907°
Mean anomaly
51.6015°
Eccentric anomaly
51.62528°
Mean motion
0.24916 °/min
Orbital period
1,444.86 mins
BSTAR
0
Loading maneuver chart data...
Computing Atmospheric mass density...
Loading historical data...
Loading historical data...
Loading historical data...
Loading historical data...
Loading historical data...
Loading historical data...
Loading historical data...

Documentation

Showing up to 5 results
|